Regional Weather Roundup
Issued by NWS Raleigh/Durham, NC

Home | Current Version | Previous Version | Text Only | Print | Product List | Glossary On
Versions: 1 2 3 4 5 6 7 8 9 10 11 12 13 14 15 16 17 18 19 20 21 22 23 24 25 26 27 28 29 30 31 32 33 34 35 36 37 38 39 40 41 42 43 44 45 46 47 48 49 50
000
ASUS42 KRAH 041810
RWRRAH
NORTH CAROLINA WEATHER ROUNDUP
NATIONAL WEATHER SERVICE RALEIGH NC
200 PM EDT TUE AUG 04 2015

NOTE: "FAIR" INDICATES FEW OR NO CLOUDS BELOW 12,000 FEET WITH NO
SIGNIFICANT WEATHER AND/OR OBSTRUCTIONS TO VISIBILITY.

NCZ001-053-055-056-065-067-041900-
WESTERN NORTH CAROLINA

CITY           SKY/WX    TMP DP  RH WIND       PRES   REMARKS
ASHEVILLE      SUNNY     90  58  33 N9        30.09F
JEFFERSON      PTSUNNY   82  57  43 W10G20    30.15S
MORGANTON      SUNNY     92  60  34 CALM      30.06F
HICKORY        SUNNY     93  59  31 VRB3      30.01F
RUTHERFORDTON  SUNNY     92  62  36 SE6       30.02S
MOUNT AIRY     MOSUNNY   91  65  42 N3        30.02F
BOONE          MOSUNNY   81  58  45 W10G20    30.16S
$$

NCZ021-022-025-041-071-084-088-041900-
CENTRAL NORTH CAROLINA

CITY           SKY/WX    TMP DP  RH WIND       PRES   REMARKS
CHARLOTTE      MOSUNNY   94  64  37 N6        29.99F HX  95
GREENSBORO     PTSUNNY   91  66  43 W7        29.99F
WINSTON-SALEM  MOSUNNY   92  65  40 VRB5      30.00F
RALEIGH-DURHAM MOSUNNY   91  70  49 SE8       29.97F HX  96
FORT BRAGG     MOSUNNY   92  71  50 VRB7      29.94F HX  98
FAYETTEVILLE   MOSUNNY   93  71  48 SE12      29.94F HX 100
BURLINGTON     SUNNY     92  69  47 VRB6      29.97F HX  97
LAURINBURG     MOSUNNY   93  68  43 E7        29.95F HX  97
$$

NCZ011-015-027-028-043-044-047-080-103-041900-
NORTHEASTERN NORTH CAROLINA

CITY           SKY/WX    TMP DP  RH WIND       PRES   REMARKS
ROCKY MT-WILSO PTSUNNY   90  72  55 S15G22    29.97F HX  97
GREENVILLE     MOSUNNY   82  77  83 S5        30.01F
WASHINGTON     PTSUNNY   83  75  77 S6        30.00F
ELIZABETH CITY PTSUNNY   83  76  79 S13       30.00S
MANTEO         DRIZZLE   76  71  84 W12       30.03S
CAPE HATTERAS  CLOUDY    82  75  79 SW8       30.02F
$$

NCZ078-087-090-091-093-098-101-041900-
SOUTHEASTERN NORTH CAROLINA

CITY           SKY/WX    TMP DP  RH WIND       PRES   REMARKS
LUMBERTON      MOSUNNY   89  72  56 E12G18    29.94F HX  96
GOLDSBORO      MOSUNNY   90  74  59 SE13G18   29.95F HX  99
KINSTON        MOSUNNY   88  73  62 S17       29.99F HX  96
KENANSVILLE    CLOUDY   N/A N/A N/A S7        29.98F
NEW BERN       PTSUNNY   85  72  65 S14G24    30.01F
CHERRY POINT   CLOUDY    84  74  71 SW12G18   30.01F
BEAUFORT       CLOUDY    83  76  79 S14G23    30.02S
JACKSONVILLE   CLOUDY    84  71  65 S17G23    29.99F
WILMINGTON     CLOUDY    77  71  82 SE8       29.98S
$$



USA.gov is the U.S. government's official web portal to all federal, state and local government web resources and services.